DELTA 1 DEB, 42651

Orbit data source: Space-Track

DELTA 1 DEB, 42651 is space debris in SSO originally from a launch on Thu, 12 Jun 1975 UTC launched from the Air Force Western Test Range (AFWTR). Debris objects in space refer to the collection of defunct objects orbiting the Earth. Examples of debris include non-operational satellites, rocket bodies, and fragments generated from explosions, collisions, or faulty payload assembly.

Loading next visibility...
Identifier
42651, 1975-052ML
Orbit
SSO
Country
Flag of USUS
Related business
Manufacturer
Unknown
Mission
Spacecraft
Bus & Motor
Unknown
Mass
Unknown
Launch date (UTC)
1975-06-12 (51 years ago)
Launch vehicle
Unknown
Launch site
Air Force Western Test Range (AFWTR)
Object type
Payload
Rocket body
Debris
Shape & HBR
Unknown shape, 0.1 m
Radar Cross Section
Small (<0.1 m²)

Expand to show TLE details & history
Last TLE update: 2 months ago

TLE from 2 months ago
0 DELTA 1 DEB
1 42651U 75052ML  25298.12348292  .00000609  00000-0  10043-2 0  9999
2 42651  99.2891 237.8880 0158237  64.7914 313.5359 13.46062483539723
Epoch: 2025-10-25T02:57Z
TLE epoch observation values (Epoch: 2025-10-25T02:57:48.924Z)
Latitude
16.7519°
Longitude
156.86833°
Altitude
1,008.572 km
Speed
7.388 km/s
True Right ascension
15h 40m 19s
True Declination
16° 39' 38"
Sunlit
Object was in daylight at epoch
Visualization orbit readout
Latitude
Unknown
Longitude
Unknown
Altitude
Unknown
Speed
Unknown
Apparent Right ascension
Unknown
Apparent Declination
Unknown
Sunlit
N/A
Visualization observer readout
Local Sidereal Time
19:00:22
Azimuth
Unknown
Elevation
Unknown
Doppler factor
Unknown
Orbital elements
Apogee altitude
1,202.145 km
Perigee altitude
965.986 km
Semi-major axis
7,462.203 km
Eccentricity
0.01582
Inclination
99.2891°
RAAN
237.888°
Arg. of periapsis
64.7914°
True anomaly
312.20336°
Mean anomaly
313.5359°
Eccentric anomaly
312.87145°
Mean motion
3.367 °/min
Orbital period
106.92 mins
BSTAR
0.0010043
Loading maneuver chart data...
Computing Atmospheric mass density...

Documentation

Showing up to 5 results
|